Simultaneous Nadir Overpasses (SNOs) Predictions

Prediction of SNOs between AQUA and METOP-A Satellite Orbit:

Table of predicted SNOs for the next 14.0 days since TLE Epoch: 8/24/2012
Index Date (AQUA) Time (AQUA) AQUA Lat,Lon Date (METOP-A) Time (METOP-A) METOP-A Lat,Lon Distance(km) Time Diff (sec)
1 08/24/2012 21:10:37 -73.77, 36.69 08/24/2012 21:09:24 -73.73, 36.65 4.11 73
2 08/24/2012 22:00:06 73.84,-155.85 08/24/2012 22:00:02 73.84,-155.77 2.52 4
3 08/24/2012 22:49:33 -73.92, 11.63 08/24/2012 22:50:42 -73.91, 11.73 3.12 69
4 08/27/2012 16:44:52 -73.76, 103.13 08/27/2012 16:43:46 -73.77, 103.14 1.11 66
5 08/27/2012 17:34:21 73.84, -89.41 08/27/2012 17:34:25 73.83, -89.39 2.07 4
6 08/27/2012 18:23:50 -74.02, 77.85 08/27/2012 18:25:02 -74.05, 78.47 19.35 72
7 08/30/2012 12:19:07 -73.77, 169.54 08/30/2012 12:18:09 -73.75, 169.49 3.10 58
8 08/30/2012 13:08:36 73.86, -23.01 08/30/2012 13:08:47 73.85, -22.93 2.80 11
9 08/30/2012 13:58:11 -74.34, 143.54 08/30/2012 13:59:19 -74.32, 145.56 60.58 68
10 09/02/2012 07:53:20 -73.75,-123.97 09/02/2012 07:52:30 -73.76,-124.06 3.44 50
11 09/02/2012 08:42:49 73.84, 43.47 09/02/2012 08:43:08 73.86, 43.50 2.53 19
12 09/05/2012 03:27:35 -73.79, -57.63 09/05/2012 03:26:52 -73.77, -57.65 3.15 43
13 09/05/2012 04:17:03 73.84, 109.91 09/05/2012 04:17:30 73.86, 109.91 2.40 27




NCC Satellite Simultaneous Nadir Overpasses (SNOs) Prediction Service
